GOPTI EGBO-EGBO

Flight info

Callsign GOPTI
Flight time N/A
Altitude 3000
Route EGBO VFR EGBO
Aircraft P28A/L-SDGRY/S

Departure

Time 2026-04-25 18:13
Airport Wolverhampton Halfpenny Green Airport (EGBO)

Arrival

Time N/A
Airport Wolverhampton Halfpenny Green Airport (EGBO)
Time Latitude Longitude Altitude Speed Heading
2026-04-25 17:59 52.51595 -2.26460 267 ft 0 kts
2026-04-25 18:07 52.51593 -2.26477 265 ft 5 kts 166°
2026-04-25 18:08 52.51546 -2.26479 266 ft 6 kts 185°
2026-04-25 18:08 52.51532 -2.26502 267 ft 5 kts 284°
2026-04-25 18:08 52.51540 -2.26636 264 ft 18 kts 274°
2026-04-25 18:08 52.51579 -2.26840 257 ft 21 kts 304°
2026-04-25 18:09 52.51685 -2.26985 255 ft 20 kts
2026-04-25 18:09 52.51731 -2.26872 265 ft 9 kts 96°
2026-04-25 18:09 52.51723 -2.26767 277 ft 2 kts 94°
2026-04-25 18:11 52.51715 -2.26654 277 ft 28 kts 96°
2026-04-25 18:11 52.51676 -2.26120 276 ft 64 kts 97°
2026-04-25 18:12 52.51622 -2.25309 358 ft 70 kts 95°
2026-04-25 18:12 52.51607 -2.24538 455 ft 67 kts 93°
2026-04-25 18:12 52.51356 -2.23912 510 ft 73 kts 161°
2026-04-25 18:12 52.50843 -2.23915 606 ft 77 kts 185°
2026-04-25 18:13 52.50302 -2.23975 707 ft 82 kts 176°
2026-04-25 18:13 52.49829 -2.24401 804 ft 88 kts 251°
2026-04-25 18:13 52.49897 -2.25406 943 ft 88 kts 281°
2026-04-25 18:14 52.50943 -2.26015 1214 ft 88 kts
2026-04-25 18:14 52.51567 -2.25991 1329 ft 91 kts 360°
2026-04-25 18:14 52.52187 -2.26051 1479 ft 91 kts 356°
2026-04-25 18:14 52.52806 -2.26214 1603 ft 93 kts 335°
2026-04-25 18:15 52.53106 -2.27139 1673 ft 99 kts 266°
2026-04-25 18:15 52.52924 -2.28244 1799 ft 100 kts 251°
2026-04-25 18:15 52.52676 -2.29317 1926 ft 100 kts 248°
2026-04-25 18:15 52.52403 -2.30374 2042 ft 101 kts 248°
2026-04-25 18:16 52.52128 -2.31433 2174 ft 98 kts 246°
2026-04-25 18:16 52.51832 -2.32461 2272 ft 100 kts 244°
2026-04-25 18:16 52.51257 -2.34626 2426 ft 106 kts 252°
2026-04-25 18:17 52.51137 -2.35833 2530 ft 105 kts 266°
2026-04-25 18:17 52.51190 -2.37007 2664 ft 101 kts 284°
2026-04-25 18:17 52.51424 -2.38086 2718 ft 100 kts 292°
2026-04-25 18:17 52.51678 -2.39149 2695 ft 99 kts 292°
2026-04-25 18:18 52.51935 -2.40199 2661 ft 99 kts 293°
2026-04-25 18:18 52.52186 -2.41238 2648 ft 98 kts 292°
2026-04-25 18:18 52.52512 -2.42177 2624 ft 96 kts 316°
2026-04-25 18:18 52.53108 -2.42650 2560 ft 98 kts 352°
2026-04-25 18:19 52.53793 -2.42676 2520 ft 98 kts 359°
2026-04-25 18:19 52.54489 -2.42708 2460 ft 100 kts 359°
2026-04-25 18:19 52.55177 -2.42767 2415 ft 100 kts 356°
2026-04-25 18:19 52.55868 -2.42878 2379 ft 99 kts 354°
2026-04-25 18:20 52.56556 -2.43043 2328 ft 101 kts 352°
2026-04-25 18:20 52.57246 -2.43174 2304 ft 99 kts 353°
2026-04-25 18:20 52.57939 -2.43317 2225 ft 102 kts 355°
2026-04-25 18:20 52.58632 -2.43386 2220 ft 98 kts 358°
2026-04-25 18:21 52.59325 -2.43407 2154 ft 100 kts
2026-04-25 18:21 52.60017 -2.43412 2131 ft 98 kts
2026-04-25 18:21 52.60706 -2.43411 2083 ft 100 kts
2026-04-25 18:21 52.61396 -2.43405 2052 ft 99 kts
2026-04-25 18:22 52.62084 -2.43399 2017 ft 99 kts
2026-04-25 18:22 52.62308 -2.43397 2008 ft 99 kts
2026-04-25 18:22 52.63463 -2.43383 1960 ft 98 kts
2026-04-25 18:22 52.64152 -2.43373 1915 ft 99 kts
2026-04-25 18:23 52.64833 -2.43367 1901 ft 97 kts
2026-04-25 18:23 52.65522 -2.43360 1843 ft 99 kts
2026-04-25 18:23 52.66206 -2.43354 1816 ft 98 kts
2026-04-25 18:23 52.66887 -2.43346 1766 ft 99 kts
2026-04-25 18:24 52.67569 -2.43298 1709 ft 101 kts 13°
2026-04-25 18:24 52.68081 -2.42507 1592 ft 104 kts 71°
2026-04-25 18:24 52.68167 -2.41391 1644 ft 96 kts 85°
2026-04-25 18:24 52.68196 -2.40260 1573 ft 99 kts 88°
2026-04-25 18:25 52.68208 -2.39144 1567 ft 97 kts 89°
2026-04-25 18:25 52.68214 -2.38010 1522 ft 99 kts 89°
2026-04-25 18:25 52.68217 -2.36888 1499 ft 98 kts 90°
2026-04-25 18:25 52.68216 -2.35766 1472 ft 98 kts 90°
2026-04-25 18:26 52.68214 -2.34637 1443 ft 97 kts 90°
2026-04-25 18:26 52.68208 -2.33524 1398 ft 99 kts 90°
2026-04-25 18:26 52.68205 -2.32396 1387 ft 97 kts 89°
2026-04-25 18:26 52.68201 -2.31274 1346 ft 99 kts 90°
2026-04-25 18:27 52.68197 -2.30149 1324 ft 98 kts 90°
2026-04-25 18:27 52.68194 -2.29020 1290 ft 98 kts 90°
2026-04-25 18:27 52.68191 -2.27916 1260 ft 98 kts 90°
2026-04-25 18:27 52.68188 -2.26798 1249 ft 97 kts 90°
2026-04-25 18:28 52.68184 -2.25685 1210 ft 98 kts 90°
2026-04-25 18:28 52.68182 -2.24564 1196 ft 97 kts 90°
2026-04-25 18:28 52.68181 -2.23445 1164 ft 98 kts 90°
2026-04-25 18:29 52.68179 -2.21210 1125 ft 98 kts 90°
2026-04-25 18:29 52.68179 -2.20095 1109 ft 97 kts 90°
2026-04-25 18:30 52.68196 -2.16743 1024 ft 97 kts 87°
2026-04-25 18:30 52.68230 -2.15626 986 ft 98 kts 87°
2026-04-25 18:30 52.68278 -2.14517 975 ft 97 kts 84°
2026-04-25 18:30 52.68390 -2.13416 922 ft 99 kts 70°
2026-04-25 18:31 52.68873 -2.12618 854 ft 99 kts 34°
2026-04-25 18:31 52.69433 -2.12009 838 ft 95 kts 32°
2026-04-25 18:31 52.69988 -2.11439 797 ft 92 kts 35°
2026-04-25 18:31 52.70413 -2.10651 681 ft 95 kts 52°
2026-04-25 18:32 52.70767 -2.09810 388 ft 84 kts 62°
2026-04-25 18:32 52.70990 -2.09085 339 ft 61 kts 62°
2026-04-25 18:32 52.71209 -2.08422 417 ft 68 kts 64°
2026-04-25 18:32 52.71380 -2.07696 478 ft 74 kts 83°
2026-04-25 18:33 52.71263 -2.06887 605 ft 73 kts 107°
2026-04-25 18:33 52.71083 -2.06071 698 ft 78 kts 111°
2026-04-25 18:33 52.70865 -2.05201 783 ft 85 kts 111°
2026-04-25 18:33 52.70652 -2.04297 947 ft 83 kts 110°
2026-04-25 18:34 52.70441 -2.03414 1079 ft 85 kts 108°
2026-04-25 18:34 52.70272 -2.02480 1201 ft 86 kts 109°
2026-04-25 18:34 52.70041 -2.01557 1327 ft 87 kts 109°
2026-04-25 18:34 52.69905 -2.00589 1458 ft 87 kts 102°
2026-04-25 18:35 52.69739 -1.99661 1600 ft 86 kts 106°
2026-04-25 18:35 52.69561 -1.98712 1700 ft 89 kts 105°
2026-04-25 18:35 52.69383 -1.97710 1743 ft 90 kts 102°
2026-04-25 18:35 52.69206 -1.96742 1796 ft 89 kts 107°
2026-04-25 18:36 52.69033 -1.95775 1821 ft 89 kts 107°
2026-04-25 18:36 52.68632 -1.94957 1799 ft 94 kts 142°
2026-04-25 18:36 52.68016 -1.94430 1743 ft 102 kts 151°
2026-04-25 18:36 52.67389 -1.93865 1599 ft 104 kts 142°
2026-04-25 18:37 52.66876 -1.93036 1429 ft 104 kts 130°
2026-04-25 18:37 52.66396 -1.92151 1273 ft 102 kts 128°
2026-04-25 18:37 52.65982 -1.91179 1142 ft 102 kts 123°
2026-04-25 18:37 52.65610 -1.90219 1082 ft 95 kts 119°
2026-04-25 18:38 52.65303 -1.89257 980 ft 95 kts 117°
2026-04-25 18:38 52.64964 -1.88318 897 ft 96 kts 119°
2026-04-25 18:38 52.64662 -1.87376 878 ft 91 kts 116°
2026-04-25 18:38 52.64395 -1.86460 851 ft 86 kts 114°
2026-04-25 18:39 52.64149 -1.85589 807 ft 85 kts 115°
2026-04-25 18:39 52.63925 -1.84690 779 ft 83 kts 111°
2026-04-25 18:39 52.63736 -1.83799 750 ft 82 kts 108°
2026-04-25 18:39 52.63723 -1.82861 652 ft 89 kts 68°
2026-04-25 18:40 52.64051 -1.81954 552 ft 94 kts 59°
2026-04-25 18:40 52.64390 -1.81044 500 ft 92 kts 60°
2026-04-25 18:40 52.64270 -1.80214 515 ft 77 kts 152°
2026-04-25 18:40 52.63781 -1.79913 519 ft 72 kts 157°
2026-04-25 18:41 52.63309 -1.79654 549 ft 76 kts 164°
2026-04-25 18:41 52.62893 -1.80190 569 ft 90 kts 247°
2026-04-25 18:41 52.62986 -1.81056 453 ft 82 kts 324°
2026-04-25 18:41 52.63395 -1.81634 339 ft 73 kts 325°
2026-04-25 18:42 52.63810 -1.82025 303 ft 65 kts 329°
2026-04-25 18:42 52.63934 -1.82153 299 ft 58 kts 329°
2026-04-25 18:42 52.64620 -1.82750 409 ft 71 kts 349°
2026-04-25 18:42 52.64952 -1.82798 477 ft 71 kts 352°
2026-04-25 18:43 52.65457 -1.82902 576 ft 73 kts 352°
2026-04-25 18:43 52.65971 -1.82967 684 ft 75 kts 353°
2026-04-25 18:43 52.66503 -1.83059 793 ft 78 kts 358°
2026-04-25 18:43 52.67054 -1.82901 887 ft 84 kts 11°
2026-04-25 18:44 52.67695 -1.82728 882 ft 101 kts 15°
2026-04-25 18:44 52.68249 -1.82003 883 ft 108 kts 64°
2026-04-25 18:44 52.68221 -1.80886 1045 ft 102 kts 116°
2026-04-25 18:44 52.67680 -1.80096 1097 ft 108 kts 152°
2026-04-25 18:45 52.67144 -1.79306 1146 ft 99 kts 126°
2026-04-25 18:45 52.66755 -1.78398 1092 ft 93 kts 123°
2026-04-25 18:45 52.66408 -1.77555 1086 ft 85 kts 122°
2026-04-25 18:45 52.66093 -1.76766 1070 ft 79 kts 123°
2026-04-25 18:46 52.65802 -1.76048 1062 ft 73 kts 122°
2026-04-25 18:46 52.65531 -1.75381 1040 ft 66 kts 121°
2026-04-25 18:46 52.65294 -1.74723 1035 ft 70 kts 110°
2026-04-25 18:46 52.65078 -1.73943 1021 ft 87 kts 119°
2026-04-25 18:47 52.64767 -1.73094 1183 ft 82 kts 120°
2026-04-25 18:47 52.64425 -1.72199 1204 ft 96 kts 121°
2026-04-25 18:47 52.64056 -1.71237 1290 ft 99 kts 121°
2026-04-25 18:47 52.63743 -1.70304 1304 ft 91 kts 102°
2026-04-25 18:48 52.63708 -1.69300 1259 ft 88 kts 91°
2026-04-25 18:48 52.63739 -1.66275 1110 ft 90 kts 85°
2026-04-25 18:49 52.63785 -1.65237 1057 ft 90 kts 88°
2026-04-25 18:49 52.63501 -1.64375 996 ft 91 kts 148°
2026-04-25 18:49 52.62877 -1.64347 909 ft 95 kts 205°
2026-04-25 18:49 52.62350 -1.64995 846 ft 95 kts 212°
2026-04-25 18:50 52.61787 -1.65524 808 ft 92 kts 204°
2026-04-25 18:50 52.61209 -1.65325 749 ft 91 kts 133°
2026-04-25 18:50 52.60832 -1.64490 710 ft 90 kts 130°
2026-04-25 18:50 52.60441 -1.63706 686 ft 88 kts 129°
2026-04-25 18:51 52.60167 -1.62816 681 ft 85 kts 113°
2026-04-25 18:51 52.60037 -1.62203 645 ft 87 kts 112°
2026-04-25 18:51 52.59669 -1.61034 615 ft 87 kts 118°
2026-04-25 18:51 52.59395 -1.60142 583 ft 86 kts 118°
2026-04-25 18:52 52.59118 -1.59263 560 ft 87 kts 117°
2026-04-25 18:52 52.58849 -1.58371 540 ft 86 kts 117°
2026-04-25 18:52 52.58582 -1.57497 528 ft 85 kts 117°
2026-04-25 18:52 52.58310 -1.56631 490 ft 85 kts 120°
2026-04-25 18:53 52.57983 -1.55815 520 ft 84 kts 126°
2026-04-25 18:53 52.57665 -1.55032 689 ft 82 kts 121°
2026-04-25 18:53 52.57376 -1.54203 820 ft 84 kts 118°
2026-04-25 18:53 52.57100 -1.53351 933 ft 86 kts 120°
2026-04-25 18:54 52.56444 -1.51689 1017 ft 87 kts 124°
2026-04-25 18:54 52.56098 -1.50885 1042 ft 89 kts 123°
2026-04-25 18:54 52.55634 -1.50223 1067 ft 90 kts 149°
2026-04-25 18:55 52.55065 -1.49743 1082 ft 93 kts 152°
2026-04-25 18:55 52.54496 -1.49291 1124 ft 91 kts 149°
2026-04-25 18:55 52.53919 -1.48851 1213 ft 92 kts 152°
2026-04-25 18:55 52.53337 -1.48401 1213 ft 92 kts 150°
2026-04-25 18:56 52.52763 -1.47943 1237 ft 91 kts 149°
2026-04-25 18:56 52.52183 -1.47483 1251 ft 94 kts 149°
2026-04-25 18:56 52.51580 -1.47004 1243 ft 97 kts 150°
2026-04-25 18:56 52.50979 -1.46480 1229 ft 98 kts 150°
2026-04-25 18:57 52.50384 -1.45949 1220 ft 97 kts 149°
2026-04-25 18:57 52.49800 -1.45417 1224 ft 96 kts 150°
2026-04-25 18:57 52.49220 -1.44898 1229 ft 94 kts 149°
2026-04-25 18:57 52.48838 -1.44557 1223 ft 94 kts 149°
2026-04-25 18:58 52.48076 -1.43886 1225 ft 92 kts 148°
2026-04-25 18:58 52.47139 -1.43042 1233 ft 93 kts 149°
2026-04-25 18:58 52.46379 -1.42355 1239 ft 94 kts 149°
2026-04-25 18:59 52.45246 -1.41332 1231 ft 92 kts 149°